Flag Weather past 2 weeks in Kazan, Russia

Now
27 °F

Overcast.


Feels Like: 15 °F
Forecast: 7 / 14 °F
Wind: 15 mph from Northeast

Location: Kazan'

Current Time: Nov 23, 2014 at 1:11:23 PM

Latest Report: Nov 23, 2014 at 12:30 PM


Visibility: N/A

Pressure: 30.33 "Hg

Humidity: 69%

Dew point: 18 °F

Location of KazanLocation

Historic Weather in Kazan — Graph

°F

Kazan temperature yesterday

Maximum temperature yesterday: 23 °F (at 2:00 PM)
Minimum temperature yesterday: 19 °F (at 3:00 AM)
Average temperature yesterday: 22 °F

Past Weeks' High & Low Weather Summary

 TemperatureHumidityPressure
High46 °F (Nov 9, 12:30 PM)100% (Nov 8, 12:00 PM)30.66 "Hg (Nov 8, 12:00 PM)
Low10 °F (Nov 17, 2:00 AM)69% (Nov 23, 12:00 PM)30.07 "Hg (Nov 9, 12:30 AM)
Average28 °F92%30.42 "Hg
* Reported Nov 8 12:00 Noon — Nov 23 12:00 Noon, Kazan, Weather by CustomWeather, © 2014

Note: Actual official high and low records may vary slightly from our data, if they occured in-between our weather recording intervals... More about our weather records

Advertising

Kazan weather history for previous 24 hours

 ConditionsComfort  
Time TempWeatherWind HumidityBarometerVisibility
12:00 PM
Nov 23
27 °FOvercast.17 mph69%30.33 "HgN/A
11:30 AM27 °FOvercast.15 mph80%30.30 "HgN/A
11:00 AM27 °FOvercast.13 mph80%30.30 "HgN/A
10:30 AM27 °FOvercast.13 mph80%30.27 "HgN/A
10:00 AM25 °FOvercast.10 mph86%30.27 "HgN/A
9:30 AM25 °FOvercast.10 mph86%30.24 "HgN/A
9:00 AM25 °FLight snow. Overcast.10 mph86%30.24 "HgN/A
8:30 AM25 °FOvercast.10 mph86%30.24 "HgN/A
8:00 AM25 °FOvercast.10 mph86%30.21 "HgN/A
7:30 AM23 °FPassing clouds.8 mph100%30.18 "HgN/A
7:00 AM23 °FLow clouds.8 mph100%30.18 "HgN/A
6:30 AM23 °FLow clouds.6 mph93%30.18 "HgN/A
6:00 AM23 °FLow clouds.10 mph93%30.18 "HgN/A
5:30 AM23 °FLow clouds.10 mph93%30.15 "HgN/A
5:00 AM23 °FLow clouds.10 mph93%30.15 "HgN/A
4:30 AM23 °FLow clouds.8 mph93%30.12 "HgN/A
4:00 AM23 °FLow clouds.6 mph93%30.12 "HgN/A
3:30 AM23 °FLow clouds.8 mph93%30.12 "HgN/A
3:00 AM23 °FLow clouds.8 mph93%30.12 "HgN/A
2:30 AM23 °FLow clouds.8 mph93%30.12 "HgN/A
2:00 AM23 °FLow clouds.10 mph93%30.12 "HgN/A
1:30 AM23 °FPassing clouds.10 mph93%30.12 "HgN/A
1:00 AM23 °FClear.6 mph93%30.12 "Hg10 mi
12:30 AM23 °FPartly cloudy.6 mph93%30.12 "HgN/A
12:00 AM23 °FPartly cloudy.6 mph93%30.12 "HgN/A
11:30 PM
Nov 22
23 °FPartly cloudy.3 mph93%30.12 "HgN/A
11:00 PM23 °FPartly cloudy.3 mph93%30.12 "HgN/A
10:30 PM21 °FPassing clouds.3 mph100%30.12 "HgN/A
10:00 PM21 °FPassing clouds.6 mph100%30.12 "HgN/A
9:30 PM23 °FPassing clouds.6 mph93%30.12 "HgN/A
9:00 PM23 °FPassing clouds.6 mph93%30.15 "HgN/A
8:30 PM23 °FPassing clouds.6 mph100%30.15 "HgN/A
8:00 PM23 °FPassing clouds.6 mph100%30.15 "HgN/A
7:30 PM23 °FPassing clouds.6 mph100%30.15 "HgN/A
7:00 PM23 °FLow clouds.6 mph100%30.15 "HgN/A
6:30 PM23 °FLow clouds.6 mph100%30.18 "HgN/A
6:00 PM23 °FLow clouds.3 mph100%30.18 "HgN/A
5:30 PM23 °FLow clouds.3 mph100%30.21 "HgN/A
5:00 PM23 °FLow clouds.3 mph100%30.21 "HgN/A
4:30 PM23 °FLow clouds.3 mph100%30.21 "HgN/A
4:00 PM23 °FLow clouds.3 mph100%30.21 "HgN/A
3:30 PM23 °FLow clouds.3 mph100%30.24 "HgN/A
3:00 PM23 °FLow clouds.3 mph100%30.24 "HgN/A
2:30 PM23 °FLow clouds.3 mph93%30.24 "HgN/A
2:00 PM23 °FLow clouds.3 mph93%30.24 "HgN/A
1:30 PM21 °FLow clouds.3 mph100%30.24 "HgN/A
1:00 PM21 °FLow clouds.3 mph100%30.24 "HgN/A
Weather by CustomWeather, © 2014

See weather overviewHow to use our weather pages